{"data":{"norad_id":52665,"epoch":"2026-05-25T00:52:41.345760Z","epoch_age_seconds":82080,"freshness":"FRESH","line1":"1 52665U 22053K   26145.03658965 -.00000951  00000+0 -41665-4 0  9998","line2":"2 52665  53.2130 171.3857 0001281  69.2051 290.9078 15.08843086222573","mean_motion":15.08843086,"eccentricity":0.0001281,"inclination_deg":53.213,"raan_deg":171.3857,"arg_perigee_deg":69.2051,"mean_anomaly_deg":290.9078,"bstar":-4.1665e-5,"rev_number":22257,"period_min":95.437359481661,"perigee_km":538.84777704325,"apogee_km":540.62013558226,"semimajor_km":6917.8709563128,"source":"CELESTRAK","updated_at":"2026-05-25T13:38:17.231065Z"}}